カタログに戻る

STARLINK-37197

運用中通信SSO
NORAD 68389·PAYLOAD·🇺🇸 United States

打ち上げ Mar 26, 2026 から Vandenberg Space Force Base

Loading…

次のパス (今後24時間)

TLE

最新Source: CelesTrak SupGP

元期: Sep 15, 2026, 02:59 UTC

1 68389C 26063K   26258.12479167 -.00019793  00000+0 -61454-3 0  2582
2 68389  97.2851  39.1283 0001013  84.2539 114.2502 15.33444363    12

AllMySatでSTARLINK-37197をリアルタイム追跡

Download on the App Store